This demonstration page uses our WeatherBlox Daily Observations layout. Learn more.

Left ArrowRight Arrow

44.8408, -93.29828

Hourly Observations for September 21, 2019

Temp ( °F °C ) Dew Point ( °F °C ) Humidity (%) Winds ( mph kmh ) Pressure ( in mb ) Visibility ( mi km ) Precip ( " mm )
12:53 am 00:53 Clear 74 23.3 67 19.4 79 79 SE 8 13 29.88 1012 10 16 0.00 0.00
1:53 am 01:53 Clear 74 23.3 67 19.4 79 79 SSE 9 15 29.88 1012 10 16 0.00 0.00
2:53 am 02:53 Partly Cloudy 74 23.3 67 19.4 79 79 SSE 10 17 29.86 1011 10 16 0.00 0.00
3:53 am 03:53 Mostly Cloudy 73 22.8 67 19.4 81 81 SSE 10 17 29.83 1010 10 16 0.00 0.00
4:53 am 04:53 Cloudy with Nearby Thunderstorms 72 22.2 68 20 87 87 S 9 15 29.82 1010 3 5 0.09 2.29
5:10 am 05:10 Cloudy 71 21.7 69 20.6 94 94 SE 9 15 29.80 1009 8 13 0.00 0.00
5:53 am 05:53 Cloudy 71 21.7 69 20.6 94 94 SE 10 17 29.80 1009 8 13 0.00 0.00
6:44 am 06:44 Cloudy with Mist and Fog 71 21.7 69 20.6 94 94 SSE 10 17 29.78 1009 6 10 0.01 0.25
6:53 am 06:53 Cloudy 71 21.7 69 20.6 94 94 SSE 10 17 29.80 1009 8 13 0.01 0.25
7:33 am 07:33 Cloudy 72 22.2 69 20.6 91 91 S 10 17 29.79 1009 9 14 0.00 0.00
7:53 am 07:53 Cloudy 72 22.2 69 20.6 91 91 S 9 15 29.80 1009 9 14 0.00 0.00
8:02 am 08:02 Cloudy 72 22.2 69 20.6 91 91 S 10 17 29.79 1009 10 16 0.00 0.00
8:48 am 08:48 Cloudy 73 23 70 21 89 89 S 14 22 29.78 1008 10 16 0.00 0.00
8:53 am 08:53 Cloudy 73 22.8 69 20.6 87 87 S 13 20 29.79 1009 10 16 0.00 0.00
9:06 am 09:06 Cloudy 73 22.8 69 20.6 87 87 S 15 24 29.78 1008 10 16 0.00 0.00
9:53 am 09:53 Cloudy 74 23.3 68 20 82 82 S 12 19 29.79 1009 10 16 0.00 0.00
10:18 am 10:18 Cloudy 74 23.3 68 20 82 82 S 16 26 29.77 1008 10 16 0.00 0.00
10:43 am 10:43 Cloudy 75 23.9 69 20.6 82 82 S 15 24 29.76 1008 10 16 0.00 0.00
10:53 am 10:53 Cloudy 75 23.9 69 20.6 82 82 S 14 22 29.77 1008 10 16 0.00 0.00
11:53 am 11:53 Cloudy 76 24.4 69 20.6 79 79 S 20 31 29.75 1007 10 16 0.00 0.00
12:53 pm 12:53 Cloudy 76 24.4 69 20.6 79 79 S 16 26 29.75 1007 10 16 0.00 0.00
1:53 pm 13:53 Cloudy with Light Rain 76 24.4 70 21.1 82 82 S 14 22 29.75 1007 5 8 0.00 0.00
2:06 pm 14:06 Cloudy 76 24.4 70 21.1 82 82 S 12 19 29.72 1007 9 14 0.00 0.00
2:53 pm 14:53 Cloudy 78 25.6 70 21.1 76 76 S 12 19 29.72 1007 10 16 0.00 0.00
3:35 pm 15:35 Cloudy 80 26.7 70 21.1 71 71 S 13 20 29.70 1006 10 16 0.00 0.00
3:53 pm 15:53 Mostly Cloudy 81 27.2 69 20.6 67 67 SSW 13 20 29.71 1006 10 16 0.00 0.00
4:53 pm 16:53 Cloudy 80 26.7 69 20.6 69 69 S 16 26 29.70 1006 10 16 0.00 0.00
5:53 pm 17:53 Mostly Cloudy 81 27.2 69 20.6 67 67 SSW 14 22 29.71 1006 10 16 0.00 0.00
6:53 pm 18:53 Mostly Cloudy 79 26.1 69 20.6 72 72 SSW 10 17 29.71 1006 10 16 0.00 0.00
7:53 pm 19:53 Mostly Cloudy 78 25.6 69 20.6 74 74 SSW 9 15 29.72 1006 10 16 0.00 0.00
8:53 pm 20:53 Mostly Cloudy 78 25.6 69 20.6 74 74 SW 9 15 29.74 1007 10 16 0.00 0.00
9:53 pm 21:53 Mostly Cloudy 76 24.4 69 20.6 79 79 SW 9 15 29.77 1008 10 16 0.00 0.00
10:53 pm 22:53 Mostly Clear 75 23.9 66 18.9 74 74 W 8 13 29.79 1009 10 16 0.00 0.00
11:53 pm 23:53 Mostly Clear 71 21.7 59 15 66 66 WNW 9 15 29.81 1010 10 16 0.00 0.00

Powered by AerisWeather